Dewpoint
72 72 70 70 72 71 69 66 55 58 57 52 52 55 55 62 62 60 60 61 58 61 65 61 59 60 59 57 58 62 63 56 56 49 46 59 70 71 72 73 73 73 74 74 74 74 74 75 75 75 75 76 77 76 76 76 76 76 76 76 76 76 76 76 76 76 75 76 76 76 75 75 75 75 75 75 74 74 73 74 74 74 74 74 74 74 74 74 74 75 75 75 76 75 76 75 75
71 70 69 70 71 69 63 66 57 56 56 55 55 58 58 62 60 58 59 59 60 61 64 60 64 64 63 63 63 61 61 64 65 64 66 70 71 72 73 73 73 73 74 74 74 74 74 75 75 75 75 76 76 76 76 76 76 76 76 76 76 76 76 76 76 76 75 75 75 75 75 75 75 75 75 75 74 74 74 73 73 74 74 74 74 74 74 75 74 75 75 76 75 76 75 75 75
70 69 69 72 72 69 67 65 55 55 53 51 55 58 61 59 58 59 62 63 63 64 64 64 63 64 62 61 59 61 57 65 65 66 67 70 69 71 73 73 74 74 73 73 73 74 74 75 75 75 76 76 76 76 76 76 77 76 76 75 76 76 76 76 76 76 75 75 75 75 75 75 75 75 75 74 75 74 74 74 75 73 73 73 73 73 74 75 75 75 75 76 76 75 75 75 75
70 70 69 71 65 68 61 60 56 53 51 53 55 59 60 58 59 62 63 64 64 64 63 63 62 63 62 60 62 63 62 63 65 66 67 68 69 72 73 73 74 74 73 73 73 74 74 75 75 76 76 76 76 76 76 76 76 76 76 76 75 75 75 75 76 75 75 75 75 75 74 75 75 75 74 74 74 74 74 74 73 74 73 73 74 74 74 75 75 75 76 76 75 75 75 75 75
69 72 72 70 65 60 60 59 57 55 51 54 54 59 60 60 61 62 63 64 64 64 65 63 61 64 64 62 64 60 62 65 66 67 68 70 72 73 73 74 74 74 74 74 74 74 75 76 76 76 76 76 76 76 76 76 76 76 75 75 75 75 75 75 75 75 75 75 75 75 75 75 74 75 74 74 74 74 74 74 74 74 74 74 74 75 74 74 75 75 75 75 75 75 74 74 74
73 73 74 71 64 68 64 58 56 55 58 60 56 58 61 62 61 62 63 64 65 66 65 62 61 61 62 63 65 63 64 61 66 68 69 70 72 73 74 74 73 73 74 74 74 74 75 76 76 76 76 76 76 76 76 76 76 76 75 75 75 75 75 75 75 75 75 75 75 75 74 74 74 74 74 74 74 74 74 73 74 75 75 76 75 75 75 74 75 75 75 75 75 75 74 73 73
70 71 70 69 67 67 57 56 56 57 59 62 58 60 61 63 62 62 61 61 63 63 64 62 62 61 61 64 65 66 67 68 67 68 70 72 73 73 74 73 73 73 73 74 74 74 75 76 76 76 76 76 76 76 76 76 75 75 75 75 75 75 75 75 74 74 74 74 74 74 74 74 74 74 73 74 74 74 74 73 75 75 75 75 75 75 75 75 75 75 75 75 75 75 75 74 73
72 68 66 62 60 62 57 58 57 59 59 62 62 61 62 63 64 61 62 61 60 60 62 61 63 62 61 64 62 68 68 69 70 71 72 72 73 73 73 73 73 73 73 74 74 75 76 76 76 76 76 76 76 76 76 75 74 74 75 75 75 75 75 75 75 74 74 74 74 75 74 74 74 74 74 74 74 74 74 73 74 75 75 75 75 75 75 75 75 75 75 75 75 75 74 74 74
72 69 69 63 58 60 58 57 58 60 60 61 62 64 65 64 64 63 61 63 61 62 61 61 60 59 62 63 64 67 69 70 71 72 72 72 72 72 72 72 72 73 73 74 74 75 75 76 76 76 76 76 76 76 75 75 75 75 75 75 75 75 75 75 74 74 74 74 75 74 74 74 74 74 74 75 74 73 74 74 74 75 75 75 75 75 74 75 74 75 74 75 75 75 74 74 75
69 68 62 61 59 55 57 57 58 59 60 63 62 63 64 65 63 63 61 60 61 61 63 63 62 61 63 62 64 66 69 71 71 71 72 72 72 72 72 72 73 73 73 74 74 74 75 76 76 76 76 76 75 75 75 75 75 75 75 75 75 75 75 75 75 74 74 75 75 74 74 74 74 74 74 74 74 73 73 74 74 75 74 75 75 75 75 75 75 75 75 74 74 74 75 74 74
63 67 67 60 55 54 55 56 58 60 60 63 63 65 65 66 64 63 63 62 64 62 62 63 62 62 62 63 65 70 70 70 70 69 71 71 71 71 72 72 73 73 73 74 74 74 75 76 76 76 76 75 75 74 74 75 75 75 75 75 75 75 75 74 74 74 75 74 75 75 74 74 74 74 74 74 74 74 74 75 75 75 74 74 75 75 75 74 75 75 74 74 74 74 74 74 74
61 63 63 56 55 54 57 57 58 60 61 62 61 64 66 65 65 62 61 60 62 61 61 62 61 63 61 62 64 69 70 69 69 70 70 71 71 71 72 72 72 73 73 74 74 75 75 76 76 76 76 75 75 74 75 75 75 75 75 75 74 74 74 75 74 74 74 74 74 74 74 74 74 75 74 74 74 74 74 74 75 75 75 74 75 75 74 74 75 75 74 74 74 74 74 74 74
63 64 61 58 57 57 58 58 59 59 60 61 61 65 67 65 63 62 62 62 62 60 61 64 63 62 60 62 67 68 68 69 70 70 70 71 71 71 72 72 72 73 74 74 74 75 75 75 76 76 75 75 75 75 75 75 75 75 74 75 75 75 74 75 73 73 73 73 74 74 74 74 74 75 74 74 74 74 74 74 74 75 75 75 75 75 74 74 74 75 74 74 74 74 74 74 74
64 64 63 57 61 58 58 58 60 58 58 62 64 66 66 64 64 65 62 60 60 61 63 63 63 63 62 65 65 66 67 69 69 70 70 71 71 71 71 72 72 73 73 73 74 75 75 75 75 75 75 75 75 75 75 74 75 75 75 75 75 74 74 74 73 73 73 74 74 74 74 74 74 74 73 74 74 74 74 74 74 74 74 75 75 75 75 74 74 74 74 74 74 74 74 74 74
64 66 63 59 58 59 59 57 58 58 58 63 65 64 66 66 66 65 62 60 62 64 64 64 63 61 60 62 62 65 67 69 69 70 70 71 71 71 71 72 72 72 73 74 75 75 75 75 74 74 74 74 73 74 74 74 75 75 75 74 74 74 74 74 73 72 71 73 74 73 74 74 74 74 74 73 74 74 74 74 74 74 74 74 74 75 74 74 74 75 75 75 74 74 74 74 74
67 67 62 57 56 57 59 59 61 58 58 64 65 66 64 65 68 64 65 67 63 65 64 62 64 63 62 62 64 67 68 69 69 69 70 70 71 71 71 71 72 73 74 75 75 74 74 74 74 74 74 74 74 74 74 74 74 74 75 74 74 74 73 73 73 72 71 73 73 74 74 75 74 74 74 74 73 74 74 74 74 74 74 74 74 74 74 74 74 75 75 74 75 74 74 74 73
70 67 59 57 56 58 58 59 59 56 62 64 65 65 62 62 66 68 70 68 62 62 64 63 63 63 62 64 66 67 68 69 69 69 69 69 70 70 70 71 72 73 74 74 74 74 73 73 73 73 74 73 74 74 72 73 74 74 74 74 74 73 73 72 73 73 73 73 74 74 75 74 75 75 72 72 73 73 72 74 74 74 74 74 73 74 74 73 75 75 74 74 74 75 75 75 73
68 61 58 55 58 58 59 59 59 61 61 63 64 65 62 61 63 66 66 64 64 64 63 64 64 65 66 67 67 68 68 68 68 68 68 68 69 69 69 71 71 71 73 73 74 73 73 73 73 73 73 74 74 73 72 74 75 74 74 73 74 73 73 72 72 73 72 74 73 75 76 75 75 74 74 74 74 73 74 74 74 74 74 74 73 74 74 74 75 74 75 75 75 75 76 75 75
63 60 57 55 60 63 64 62 62 61 62 63 64 66 63 62 64 65 63 62 62 62 63 64 64 65 66 67 67 67 67 67 67 67 67 68 68 68 68 70 70 71 72 72 73 73 73 73 73 73 73 74 73 72 73 74 74 73 73 74 74 73 73 74 74 73 73 74 75 75 75 74 74 74 73 74 74 74 74 74 73 74 74 74 73 73 74 74 75 75 74 75 75 76 74 74 74
65 60 56 58 63 64 64 63 63 65 64 63 64 66 64 63 65 65 62 61 61 61 62 63 63 64 65 66 67 67 67 66 66 66 67 67 68 68 68 69 70 71 71 71 72 73 73 73 73 73 73 74 73 72 73 73 73 73 73 73 73 73 73 73 72 73 74 74 74 74 74 74 74 75 74 74 74 74 73 73 74 74 74 75 74 74 75 75 76 75 75 76 76 75 74 74 74
65 61 58 60 64 62 64 65 65 64 64 64 65 65 63 64 66 66 61 60 60 61 62 62 63 64 65 66 66 66 66 66 66 66 66 67 67 68 68 69 70 71 71 72 72 72 72 72 73 73 73 74 73 73 72 73 74 73 73 73 73 73 72 72 73 74 74 74 74 74 74 74 74 74 73 72 72 72 72 72 72 72 73 75 75 74 75 75 75 74 74 75 74 74 74 74 75
64 61 62 62 65 64 66 66 65 64 66 65 64 62 62 66 66 64 61 58 59 61 62 64 64 65 65 66 66 66 66 65 65 65 66 67 67 67 69 69 70 71 72 71 71 72 72 72 73 73 74 74 73 73 72 74 74 73 73 73 73 73 73 73 73 73 73 74 74 74 74 73 73 73 73 73 73 72 71 71 72 72 73 73 75 74 74 74 74 74 74 74 74 73 73 73 74
59 60 61 61 62 64 66 65 65 66 65 64 63 64 64 65 64 66 63 60 62 63 64 64 65 65 66 66 66 66 66 65 65 65 66 66 67 68 68 69 70 71 71 71 72 72 72 72 73 73 73 73 73 73 74 73 73 73 73 73 73 73 73 73 73 73 73 74 74 74 73 73 73 73 73 73 73 73 73 73 73 73 73 73 74 73 73 74 74 74 73 73 73 73 73 73 74
60 60 60 61 64 64 66 65 66 65 65 65 66 64 64 63 61 66 64 66 63 64 64 65 65 65 66 66 66 66 66 65 65 65 66 66 67 68 68 69 70 71 71 71 71 72 73 72 73 73 73 73 73 74 73 73 73 73 73 74 73 75 74 73 73 73 74 74 75 75 74 73 73 73 73 73 73 73 74 74 74 73 73 73 74 74 73 73 74 73 73 74 73 73 72 72 72
59 58 60 61 65 65 65 65 65 66 66 66 65 63 64 65 63 65 64 65 62 64 64 65 65 65 65 66 66 66 66 65 65 65 66 67 67 68 69 70 70 71 71 70 71 71 72 73 73 73 73 73 73 74 73 73 73 73 74 73 73 75 73 73 74 74 74 74 74 75 74 73 73 73 73 73 73 73 73 73 73 73 73 73 73 73 73 73 73 74 74 73 73 72 72 71 74
61 60 61 64 64 64 65 65 65 66 67 66 64 64 64 64 66 65 66 65 62 64 64 65 65 65 65 65 66 66 66 65 65 65 65 66 67 68 69 70 70 70 70 70 71 71 72 73 73 73 73 73 74 73 73 73 73 73 73 73 73 74 73 74 74 74 74 73 74 74 74 73 73 73 73 72 73 72 72 73 73 72 72 73 72 72 73 73 73 74 74 73 72 72 71 71 73
61 61 63 64 63 63 65 64 66 67 66 67 63 63 63 65 65 60 64 64 63 64 64 65 65 64 65 65 65 66 65 65 64 64 65 65 66 67 69 70 70 70 71 71 71 71 73 73 73 73 74 74 74 73 73 73 74 73 74 73 74 73 74 74 74 73 73 73 74 74 74 75 73 73 73 72 72 72 72 72 72 72 72 73 73 73 74 74 74 74 74 74 73 73 72 72 73
60 63 63 63 64 64 64 65 65 65 64 67 64 63 64 64 64 61 63 62 63 63 64 64 64 65 65 65 65 66 65 65 64 64 64 65 66 67 69 70 70 70 71 70 71 72 73 72 73 73 74 74 74 74 74 73 73 73 74 74 73 73 74 74 73 73 74 73 74 73 73 75 75 73 73 72 72 72 72 72 72 72 72 73 74 74 74 74 75 75 75 74 73 73 72 72 73
61 61 61 61 62 62 63 63 64 65 64 66 65 61 60 61 62 64 62 61 62 63 63 64 64 64 64 65 65 65 65 64 64 64 64 65 66 68 68 70 70 70 71 70 71 72 72 72 72 73 74 74 74 73 73 74 73 74 74 73 73 74 74 73 73 73 73 73 74 74 74 75 75 73 73 73 74 71 71 72 72 73 73 73 74 74 73 73 74 74 74 74 72 73 72 71 73
60 60 60 59 59 59 62 64 65 64 65 65 65 55 57 60 62 63 64 61 62 62 63 63 64 64 64 64 64 64 64 64 64 64 64 65 66 68 68 70 70 70 70 71 72 72 73 72 73 73 73 74 73 73 74 73 73 73 74 73 74 74 74 73 73 73 74 74 74 74 74 75 74 73 73 72 72 71 71 72 72 72 72 73 73 73 72 73 73 74 74 72 73 72 69 70 73
57 59 59 57 55 56 61 62 63 62 65 66 65 55 57 61 63 63 67 61 61 61 62 62 62 62 62 62 63 63 63 64 64 64 64 65 66 68 68 70 70 70 71 71 72 72 73 72 72 72 74 73 74 74 74 73 73 74 73 73 73 73 73 73 73 73 73 73 74 75 74 76 74 73 73 72 71 71 71 72 72 72 72 73 72 73 73 73 73 73 74 72 71 71 71 73 73
57 54 53 56 55 57 61 63 62 60 62 65 63 55 57 61 62 64 66 62 61 61 61 61 61 61 61 61 62 62 62 63 64 64 64 65 66 67 68 70 70 70 71 71 71 72 72 72 73 72 74 73 73 74 74 74 73 73 73 74 73 73 73 73 73 73 73 74 74 74 75 76 74 73 73 72 71 71 71 72 72 73 73 73 73 73 75 73 73 73 75 72 70 68 73 71 72
53 51 51 53 56 57 59 61 64 62 62 63 63 57 59 60 62 64 66 61 60 60 60 60 60 60 60 61 61 61 61 62 63 64 64 65 66 67 68 69 70 71 71 71 71 72 72 72 73 72 73 73 73 74 74 74 73 72 72 73 72 73 72 72 72 74 74 74 74 74 74 75 74 74 73 72 72 71 72 72 72 72 74 72 73 72 73 75 74 73 74 74 71 70 71 70 70
50 45 51 53 55 56 55 60 62 62 62 59 62 60 59 61 61 64 65 63 60 59 59 59 59 59 60 60 60 60 61 61 62 63 64 64 65 67 68 70 70 71 71 71 71 72 71 72 72 73 73 73 73 73 73 73 73 72 72 72 73 72 72 72 72 74 75 74 74 74 74 75 75 74 73 72 72 72 72 72 72 73 74 73 73 73 73 74 75 74 74 73 73 72 71 71 72
51 45 50 52 56 56 56 56 59 61 62 58 59 60 60 61 62 65 65 65 61 58 59 59 58 59 59 59 59 60 60 61 61 63 63 64 64 66 68 69 70 70 71 71 71 71 71 72 72 74 73 72 73 73 73 72 72 72 71 71 72 71 71 72 72 73 75 75 74 74 75 75 76 74 74 73 72 73 72 72 73 74 74 73 74 74 73 75 76 74 73 73 74 73 72 72 73
51 47 51 53 55 55 55 58 60 61 60 59 58 58 59 60 61 64 65 64 63 58 58 58 58 58 59 58 58 59 59 60 61 62 63 63 64 66 67 69 69 70 70 71 72 71 71 72 72 73 73 72 72 73 73 71 71 71 70 71 71 72 71 72 72 73 75 75 75 75 75 75 76 75 74 73 72 73 72 72 73 74 74 74 74 73 73 73 73 73 73 73 74 73 74 75 75
28 42 49 52 53 54 57 59 61 61 58 58 58 59 60 60 61 62 62 64 63 58 58 58 58 58 58 58 58 58 58 59 59 61 62 62 63 65 67 68 69 69 70 71 71 70 71 71 72 72 72 72 72 72 71 71 70 70 70 70 69 70 70 71 72 73 74 75 75 75 76 76 76 76 75 74 72 74 73 73 74 74 74 74 74 73 73 73 73 74 75 76 74 71 71 73 72
24 43 48 49 50 51 56 58 60 60 57 58 60 58 59 60 61 62 63 63 61 58 57 57 58 58 58 58 57 57 57 58 57 60 61 62 63 65 67 68 69 69 70 70 70 70 71 71 71 72 71 72 72 72 72 71 71 70 70 70 69 70 71 71 71 72 73 74 75 75 76 76 76 76 77 75 74 73 73 73 74 74 74 75 74 75 73 76 77 75 74 73 73 72 71 73 73
22 21 47 49 50 56 58 59 59 57 57 57 58 57 59 60 61 61 62 62 64 64 61 58 58 58 58 58 57 57 55 55 56 58 60 61 63 65 67 68 68 69 70 70 70 70 71 71 71 71 71 71 72 72 71 71 71 71 70 70 70 70 71 72 71 73 74 74 75 75 76 76 76 76 76 76 74 73 73 73 74 74 74 75 75 75 75 74 75 75 74 73 72 72 73 74 74
18 34 46 48 51 52 53 57 58 57 58 58 58 58 59 61 62 61 62 64 64 65 64 64 61 58 58 58 57 57 54 55 56 58 58 60 62 65 66 67 68 69 70 70 69 70 71 71 71 71 71 71 71 72 72 71 71 71 71 71 71 71 72 74 73 74 74 74 74 75 76 76 76 76 76 76 75 74 73 73 74 74 74 76 74 74 74 74 74 74 74 76 72 71 69 71 74
18 21 31 42 48 49 55 55 57 56 57 59 57 56 55 59 58 60 62 64 64 64 63 63 63 62 59 59 58 57 54 55 55 57 58 60 62 64 65 66 67 68 69 69 69 69 70 70 70 71 71 71 71 73 72 71 72 72 73 73 74 73 73 72 72 72 73 74 74 74 75 75 76 76 76 76 75 74 73 74 74 74 74 75 75 74 74 73 73 74 74 75 73 71 70 70 72
16 17 21 28 49 55 56 56 54 54 53 57 55 50 52 55 58 59 61 62 61 62 62 62 62 61 62 58 56 55 55 55 56 56 58 60 62 64 65 66 66 67 68 68 68 69 70 70 70 71 71 71 71 72 72 72 72 71 71 71 71 71 70 71 71 71 72 73 73 74 75 76 76 76 76 76 75 74 74 74 74 74 74 75 75 74 74 74 74 74 74 74 73 72 72 71 70
17 20 21 33 55 56 55 54 53 50 49 53 55 48 48 56 56 58 60 60 60 62 62 61 62 61 61 59 57 53 54 54 55 56 58 60 62 63 64 65 65 66 67 67 67 68 69 70 70 71 71 71 71 72 72 73 71 71 71 70 71 70 70 70 72 72 72 73 74 74 75 75 75 75 75 75 76 75 74 74 74 74 74 74 77 75 74 74 73 74 75 74 74 75 72 69 68
17 18 24 36 55 55 54 54 52 51 55 54 55 53 48 49 53 58 60 60 59 60 60 61 62 61 61 61 58 54 53 53 54 56 58 60 62 63 64 64 64 65 66 66 66 68 69 70 70 71 71 72 72 72 72 72 71 71 71 71 72 71 70 70 71 72 73 74 74 74 74 75 75 75 75 75 76 76 75 74 74 74 74 74 76 75 75 74 75 75 76 75 75 76 71 71 69
19 24 24 45 54 54 54 53 52 53 52 51 53 53 46 46 50 58 60 58 58 58 59 60 61 61 61 62 61 56 53 52 54 56 58 60 62 62 63 64 64 65 65 65 66 67 69 70 70 71 71 72 72 72 72 72 72 71 71 71 71 72 71 71 72 74 74 75 74 74 74 74 75 75 75 74 75 76 76 75 75 74 74 74 77 76 76 75 75 75 74 75 75 74 74 72 71
19 35 46 39 51 52 52 50 53 52 49 48 52 52 43 40 51 56 59 57 57 57 58 59 60 61 60 62 63 62 56 52 54 56 58 60 61 62 63 63 63 64 65 66 66 67 68 69 70 70 71 71 72 72 72 72 72 72 71 71 71 71 72 72 72 73 73 74 73 74 74 74 74 74 74 74 74 75 76 76 75 74 74 74 76 75 75 76 76 75 75 74 74 73 74 73 74
34 46 45 45 46 45 47 47 50 48 44 47 52 52 45 40 51 54 55 55 56 57 58 59 60 60 60 61 62 63 61 52 55 57 58 60 61 62 62 62 63 64 65 65 66 67 68 69 70 70 71 71 72 72 72 72 72 72 71 71 71 71 71 71 71 72 72 73 73 73 74 74 74 74 74 74 74 75 75 76 75 74 74 76 76 75 75 75 74 75 75 74 74 73 72 74 73
26 29 42 44 44 44 44 45 48 43 40 43 50 52 45 40 42 54 56 58 58 57 56 58 59 59 59 60 62 62 64 57 54 57 58 59 61 61 62 62 63 63 64 65 66 67 69 69 70 70 70 71 71 72 72 71 71 72 71 71 71 71 71 71 71 71 72 73 73 73 73 74 74 74 74 74 74 74 75 75 76 75 76 75 75 76 75 75 75 75 75 74 74 73 74 74 72
18 32 43 42 38 42 40 41 41 39 41 41 47 51 48 47 44 51 55 57 59 58 57 57 58 59 59 59 61 62 64 63 54 57 59 59 60 60 61 62 63 64 64 65 66 67 68 69 69 69 70 70 71 72 71 71 71 71 71 71 71 71 72 72 71 71 71 72 72 72 73 73 73 73 73 73 73 74 75 75 75 75 75 76 76 76 75 75 75 75 75 74 73 73 74 73 73
17 22 33 39 38 38 37 35 37 34 37 45 50 51 47 47 47 54 55 56 57 59 59 58 59 59 59 59 61 62 63 65 57 56 58 59 60 60 61 62 62 63 64 65 66 67 68 69 69 69 69 70 70 71 71 71 71 71 72 72 71 72 72 72 71 71 71 72 72 72 73 73 73 73 73 73 74 74 74 75 75 75 75 76 76 76 76 76 76 75 75 74 73 73 73 74 74
17 23 30 35 38 36 34 34 36 37 39 45 49 45 44 44 44 54 55 57 58 59 60 60 60 60 59 63 65 64 64 66 62 55 57 58 59 60 61 62 62 63 64 64 66 67 68 69 69 69 69 70 70 71 71 71 71 71 71 72 72 72 72 72 72 72 71 71 72 72 73 73 73 73 73 74 75 74 74 75 75 75 75 75 76 76 76 76 77 76 76 74 74 74 73 74 73
22 26 29 35 38 39 37 35 35 36 41 42 45 44 49 48 54 56 58 59 60 60 61 61 61 62 62 62 63 64 65 66 66 59 56 57 59 60 61 62 62 63 64 64 65 67 68 68 69 69 69 69 69 71 71 71 71 71 71 71 72 73 74 73 73 73 72 72 72 72 72 73 73 73 74 74 74 75 74 75 75 75 75 75 75 76 76 76 76 76 75 75 74 74 74 74 73
26 26 23 24 30 36 39 43 42 41 41 40 44 44 47 52 52 57 58 59 60 61 61 61 62 61 61 61 63 64 65 66 66 66 63 57 58 60 61 62 62 62 63 64 66 67 68 68 69 69 69 69 69 70 70 71 71 71 71 71 72 72 73 73 72 73 71 72 72 73 72 73 73 74 74 75 74 75 75 75 75 75 75 75 75 76 76 76 76 76 75 75 74 74 75 74 73
27 26 24 31 32 34 35 34 37 36 35 36 45 45 46 45 43 54 57 57 59 60 61 62 62 62 61 61 63 64 65 66 66 66 67 66 63 60 61 62 63 62 63 64 66 66 68 68 69 68 69 69 69 69 70 70 71 71 71 71 72 72 72 73 73 73 73 72 72 74 73 73 73 73 74 74 75 75 75 76 75 75 75 76 76 76 76 76 76 76 75 75 75 75 74 74 74
25 25 30 26 28 27 31 38 36 34 35 38 42 45 45 45 45 52 55 56 58 59 60 61 61 62 62 63 65 66 66 66 66 66 67 67 66 65 62 61 63 63 64 64 65 66 67 68 68 68 68 69 68 69 70 70 71 71 71 71 71 72 73 73 73 74 73 72 72 73 73 73 73 74 75 75 75 75 75 75 75 75 75 76 76 76 76 76 76 76 76 75 75 75 74 74 74
22 23 20 25 31 32 31 34 38 35 37 38 39 43 41 47 47 52 55 57 58 59 60 61 62 63 63 64 64 65 65 65 66 66 67 68 69 70 68 62 61 63 64 64 65 66 66 66 68 68 68 69 69 69 70 70 70 70 71 71 71 72 73 73 73 73 73 73 72 73 73 73 73 74 74 74 74 74 75 74 74 75 75 75 75 76 76 76 76 76 76 75 75 75 75 74 73
18 18 23 21 29 33 27 29 40 39 39 36 38 38 43 46 51 54 57 57 59 60 60 60 61 62 63 64 64 64 65 65 65 66 66 67 68 70 69 68 65 64 65 65 64 65 66 66 67 69 68 69 69 69 70 70 71 71 71 71 71 71 72 73 73 73 73 73 73 74 73 73 74 74 74 74 74 74 74 74 74 75 75 75 76 76 76 76 76 76 76 76 76 75 75 75 75
17 17 19 20 21 23 27 24 29 43 39 37 38 37 40 47 55 57 58 59 59 60 60 60 61 62 63 64 64 64 64 65 65 66 66 67 68 69 69 69 69 67 66 65 65 66 66 67 69 69 69 70 69 69 70 70 71 71 71 70 71 71 71 73 73 73 73 73 73 74 74 74 73 74 74 74 74 74 74 74 74 74 75 75 75 76 75 76 76 76 76 75 75 75 75 75 75